Location: Cahas Mountain Overlook
(37.0833°N, 80.1000°W)
Time: 19:50:35
(UTC-05:00)

Vanguard 3 - Pass Details

Date: 09 December 2023
Orbit: 508 x 3239 km, 33.4° (Epoch: 23 February)

Event Time Altitude Azimuth Distance (km) Brightness Sun altitude
Rises 19:20:53 0° 228° (SW) 7,181 12.8 -26.7°
Reaches altitude 10° 19:26:10 10° 223° (SW) 6,062 12.2 -27.7°
Maximum altitude 19:43:11 48° 157° (SSE) 3,021 9.8 -31.1°
Enters shadow 19:46:38 42° 124° (SE) 2,973 9.5 -31.8°
